Weather in Pazar

Turkey     41°10′48″N   40°53′03″E
temp.,
°C
wind,
m/s
gust,
m/s
humid.,
%
clouds,
%
prec.,
mm/h
press.,
hPa
HPBL,
m
28 october, thu
thu2800:00+13ssw33720 0.0 1024402
03:00+12ssw33710 0.0 1024315
06:00+12s437059 0.0 1025245
09:00+13ssw227266 0.1 1025335
12:00+14wsw227155 0.1 1025453
15:00+14w227465 0.2 1024642
18:00+14w227068 0.1 1024669
21:00+14sw227471 0.1 1024525
29 october, fri
fri2900:00+13ssw227673 0.1 1024408
03:00+13s217599 0.3 1023324
06:00+13s2272100 0.1 1023399
09:00+14sw117292 0.3 1024503
12:00+14nw2374100 0.4 1023600
15:00+14w3377100 0.8 1023702
18:00+13sw4587100 2.7 1023432
21:00+13sw5586100 7.2 1024420
30 october, sat
sat3000:00+13sw4488100 1.9 1024424
03:00+13s3488100 4.9 1024395
06:00+13e118371 1.6 1025364
09:00+14n01795 1.6 1025309
12:00+14nne117917 0.0 1025368
15:00+14ne227818 0.0 1024350
18:00+14sse11784 0.0 1024195
21:00+14sse11730 0.0 1024190
31 october, sun
sun3100:00+14ene11711 0.0 1023218
03:00+15ne12693 0.0 1022237
06:00+15n1167100 0.0 1021233
09:00+17nnw2168100 0.0 1021215
12:00+17nw2268100 0.0 1021157
15:00+17w22689 0.0 1020171
18:00+16wsw2270100 0.0 1020200
21:00+17wsw22685 0.0 1021181
1 november, mon
mon100:00+16wsw12665 0.0 1020130
03:00+17ene126893 0.0 101963
06:00+17e12686 0.0 101967
09:00+18w126539 0.0 101833
12:00+19nw1164100 0.0 101667
15:00+19sse1159100 0.0 101591
18:00+18sse116795 0.0 101516
21:00+18ssw2264100 0.0 101525